Location: Fredericksburg
(30.2750°N, 98.8720°W)
Time: 19:09:48
(UTC-06:00)

Daily predictions for brighter satellites

Satellite Brightness Start Highest point End
(mag) Time Altitude Azimuth Time Altitude Azimuth Time Altitude Azimuth
IRAS Rocket 4.4 17:53:47 10° SSE 17:59:22 86° WSW 18:04:55 10° NNW
Cosmos 1867 3.6 17:54:05 10° NNW 17:59:30 62° ENE 18:04:51 10° SE
Cosmos 1484 Rocket 2.8 17:55:59 10° SSE 17:59:40 54° ENE 18:03:25 10° N
Cosmos 371 Rocket 3.9 17:55:56 10° N 18:00:17 33° ENE 18:04:37 10° SE
Cosmos 1461 4.3 17:57:54 10° N 18:01:39 23° NE 18:05:25 10° ESE
Cosmos 1570 Rocket 4.3 17:56:42 10° N 18:01:53 48° ENE 18:06:59 10° SE
Cosmos 2278 Rocket 3.0 17:57:06 10° SSE 18:02:01 31° ESE 18:06:58 10° NE
USA 116 3.9 18:05:01 10° NNE 18:09:35 77° ESE 18:13:34 10° S
CZ-2C R/B 4.3 18:06:36 10° SSW 18:11:01 36° W 18:15:36 10° NNW
USA 234 3.7 18:05:02 10° NE 18:11:28 63° NW 18:17:53 10° SW
Cosmos 2233 Rocket 4.1 18:11:35 10° S 18:17:44 59° E 18:23:50 10° NNE
Cosmos 2242 Rocket 3.9 18:14:15 10° S 18:18:48 77° W 18:23:23 10° N
BREEZE-M DEB (TANK) 3.9 18:13:30 10° NW 18:20:51 34° NNE 18:23:36 14° E
Cosmos 1606 4.1 18:19:19 10° SE 18:22:01 19° E 18:24:11 12° NE
EO 1 Del DPAF 3.4 18:18:26 10° NNE 18:22:10 53° E 18:25:53 10° S
Cosmos 332 Rocket 3.7 18:18:10 10° NNW 18:23:02 73° ENE 18:27:53 10° SSE
COSMOS 2455 2.9 18:17:30 10° SSW 18:23:29 89° W 18:29:32 10° NNE
Centaur AC-112 4.2 18:16:51 10° W 18:25:54 40° SSW 18:28:47 10° SE
Meteor 1-28 Rocket 4.2 18:23:31 10° N 18:27:05 48° WNW 18:30:39 10° SSW
CORIOLIS 4.2 18:22:36 10° SSE 18:28:02 87° WSW 18:33:31 10° NNW
Timation 1 Rocket 4.3 18:22:35 10° SSW 18:28:33 78° ESE 18:34:33 10° NNE
CZ-2C R/B 4.3 18:24:31 10° N 18:28:55 58° WNW 18:33:21 10° SSW
IRS-1A Rocket 4.3 18:23:51 10° SSE 18:29:43 76° ENE 18:35:30 10° N
OAO 2 Rocket 4.1 18:26:31 10° WNW 18:31:26 51° SSW 18:36:27 10° SE
Aureole 3 4.2 18:27:13 10° N 18:31:49 78° W 18:37:42 10° S
MTI 4.1 18:29:53 10° N 18:33:04 67° WNW 18:36:15 10° SSW
SKYMED 2 3.5 18:30:44 10° NNE 18:35:05 81° ESE 18:39:24 10° S
CZ-4 R/B 1.8 18:33:43 10° S 18:37:37 63° WSW 18:41:29 10° NNW
ALOS 2.9 18:33:37 10° SE 18:37:46 33° ENE 18:41:56 10° N
Cosmos 1908 Rocket 4.2 18:34:19 10° NNE 18:38:13 32° E 18:42:05 10° SE
BREEZE M DEB (TANK) 1.3 18:41:05 10° NW 18:43:33 74° SW 18:45:19 15° SE
Cosmos 1733 Rocket 3.3 18:40:06 10° N 18:44:30 73° W 18:48:55 10° S
Cosmos 468 Rocket 3.9 18:39:57 10° N 18:45:06 65° ENE 18:50:10 10° SSE
Meteor 1-14 Rocket 4.2 18:41:01 10° N 18:46:35 57° E 18:52:02 10° SSE
BREEZE M DEB (TANK) 3.9 18:46:15 10° NW 18:56:40 68° SW 18:59:48 11° SSE
Cosmos 972 Rocket 3.9 18:53:00 10° NNW 18:57:55 84° WSW 19:02:51 10° S
CENTAUR R/B 4.2 18:53:32 10° WSW 18:58:33 28° NW 19:04:06 10° N
MOS 1 4.3 18:55:43 10° SSE 19:01:25 88° WSW 19:07:09 10° NNW
Cosmos 1072 Rocket 4.4 18:58:06 10° S 19:04:10 65° E 19:10:20 10° NNE
CZ-3A R/B 4.0 18:53:40 10° NW 19:04:51 43° NE 19:07:23 30° E
Cosmos 1503 Rocket 4.1 19:02:04 10° S 19:07:12 53° ESE 19:09:21 32° NE
COSMOS 2406 3.6 19:03:40 10° NNW 19:09:20 65° WSW 19:14:56 10° S
Cosmos 2034 Rocket 4.2 19:03:56 10° SSE 19:09:57 46° E 19:14:49 16° NNE
BREEZE-M DEB 4.2 19:05:52 10° NW 19:10:06 89° SW 19:10:24 73° SE
ATLAS 2AS CENTAUR RB 4.5 19:02:18 10° WSW 19:11:51 18° SSW 19:15:42 10° SSE
Cosmos 1763 Rocket 3.3 19:06:47 10° N 19:11:57 66° ENE 19:17:02 10° SSE
Cosmos 1814 Rocket 3.9 19:07:03 10° NNW 19:12:25 77° ENE 19:17:44 10° SSE
Cosmos 972 4.2 19:11:09 10° N 19:16:08 68° ENE 19:20:57 10° SSE
Cosmos 2221 Rocket 3.4 19:12:13 10° S 19:16:36 77° E 19:18:16 38° NNE
NOAA 12 4.1 19:12:20 10° SSE 19:17:40 88° WSW 19:23:00 10° NNW
ERS-2 4.2 19:15:31 10° SSW 19:18:45 29° W 19:22:01 10° NW
Okean 1-7 3.0 19:16:25 10° S 19:20:45 84° W 19:22:59 28° N
SPOT 3 Rocket 4.0 19:19:08 10° S 19:24:17 63° WSW 19:29:28 10° NNW
Aurora 2 Rocket 3.5 19:20:27 10° WSW 19:24:38 31° SSW 19:25:18 29° S
MOS 1-B Rocket 4.5 19:29:01 36° ESE 19:31:25 50° ENE 19:38:50 10° N
Cosmos 2297 3.6 19:29:33 10° SSW 19:35:14 89° ESE 19:36:49 50° NNE
Cosmos 1782 4.4 19:36:17 10° SSW 19:39:57 34° W 19:42:23 18° NNW
Cosmos 1464 Rocket 4.3 19:35:33 10° SSW 19:41:36 64° W 19:47:41 10° N
Cosmos 1354 Rocket 4.3 19:37:21 10° SSW 19:42:37 67° WNW 19:44:11 44° N
Cosmos 841 Rocket 3.4 19:37:38 10° NNW 19:42:55 83° WSW 19:44:09 54° S
Cosmos 2278 Rocket 4.1 19:41:16 10° WSW 19:46:00 27° WNW 19:50:47 10° N
IUS-9 SRM-1 3.9 19:23:32 10° W 19:47:18 64° SSW 19:48:46 51° SE
Atlas 2A Centaur Rocket 2.9 19:42:44 10° W 19:54:17 62° SSW 19:54:17 62° SSW
Meteor 1-27 Rocket 4.3 20:06:02 10° SSW 20:11:38 58° W 20:11:38 58° W
CZ-3C R/B 4.1 19:31:49 10° W 20:38:35 49° SSW 20:39:56 47° S
